• In Deutschland
  • Länderverzeichnis
  • Für 7 Tage
  • Wassertemperatur
  • Satellitenkarten
  • Wetterkarte
  • Widgets
  • user-avatar
    Anmelden

    Stündliche Wetter Berat

    Heute, 25 September, Montag

    Zeit Temperatur Niederschläge Wind Luftdruck Luftfeuchtigkeit
    00:00 +18°C° 0,3 mm 2 m/S 746 mmHg 81%
    01:00 +18°C° 0,3 mm 2 m/S 745 mmHg 81%
    02:00 +18°C° 0,4 mm 2 m/S 745 mmHg 81%
    03:00 +18°C° 0,4 mm 2 m/S 745 mmHg 82%
    04:00 +18°C° 0,4 mm 2 m/S 744 mmHg 83%
    05:00 +18°C° 0,9 mm 2 m/S 744 mmHg 83%
    06:00 +18°C° 0,9 mm 2 m/S 744 mmHg 83%
    07:00 +18°C° 0,9 mm 2 m/S 744 mmHg 83%
    08:00 +18°C° 1,1 mm 2 m/S 745 mmHg 81%
    09:00 +18°C° 1,1 mm 3 m/S 745 mmHg 79%
    10:00 +18°C° 1,1 mm 3 m/S 745 mmHg 78%
    11:00 +18°C° 0,4 mm 3 m/S 745 mmHg 74%
    12:00 +19°C° 0,4 mm 3 m/S 745 mmHg 70%
    13:00 +19°C° 0,4 mm 3 m/S 745 mmHg 67%
    14:00 +20°C° 0,3 mm 3 m/S 745 mmHg 65%
    15:00 +20°C° 0,3 mm 2 m/S 745 mmHg 64%
    16:00 +20°C° 0,3 mm 2 m/S 745 mmHg 63%
    17:00 +19°C° 0,3 mm 2 m/S 745 mmHg 68%
    18:00 +18°C° 0,3 mm 2 m/S 745 mmHg 72%
    19:00 +17°C° 0,3 mm 2 m/S 745 mmHg 77%
    20:00 +17°C° 0,1 mm 2 m/S 745 mmHg 79%
    21:00 +17°C° 0,1 mm 2 m/S 745 mmHg 80%
    22:00 +16°C° 0,1 mm 2 m/S 745 mmHg 81%
    23:00 +16°C° 0,1 mm 2 m/S 745 mmHg 82%

    Morgen, 26 September, Dienstag

    Zeit Temperatur Niederschläge Wind Luftdruck Luftfeuchtigkeit
    00:00 +16°C° 0,1 mm 2 m/S 745 mmHg 82%
    01:00 +15°C° 0,1 mm 2 m/S 745 mmHg 83%
    02:00 +15°C° 0,1 mm 2 m/S 745 mmHg 83%
    03:00 +15°C° 0,1 mm 1 m/S 745 mmHg 83%
    04:00 +15°C° 0,1 mm 1 m/S 745 mmHg 83%
    05:00 +16°C° 0 mm 1 m/S 745 mmHg 80%
    06:00 +18°C° 0 mm 1 m/S 745 mmHg 77%
    07:00 +18°C° 0 mm 1 m/S 745 mmHg 74%
    08:00 +20°C° 0 mm 1 m/S 745 mmHg 67%
    09:00 +22°C° 0 mm 1 m/S 746 mmHg 59%
    10:00 +24°C° 0 mm 1 m/S 746 mmHg 51%
    11:00 +25°C° 0,2 mm 1 m/S 746 mmHg 50%
    12:00 +25°C° 0,2 mm 2 m/S 745 mmHg 49%
    13:00 +26°C° 0,2 mm 2 m/S 745 mmHg 47%
    14:00 +25°C° 0,3 mm 2 m/S 745 mmHg 50%
    15:00 +25°C° 0,3 mm 3 m/S 745 mmHg 53%
    16:00 +24°C° 0,3 mm 3 m/S 745 mmHg 56%
    17:00 +21°C° 0,1 mm 2 m/S 746 mmHg 62%
    18:00 +20°C° 0,1 mm 2 m/S 746 mmHg 69%
    19:00 +19°C° 0,1 mm 1 m/S 746 mmHg 76%
    20:00 +19°C° 0 mm 1 m/S 747 mmHg 76%
    21:00 +19°C° 0 mm 1 m/S 747 mmHg 77%
    22:00 +18°C° 0 mm 1 m/S 747 mmHg 78%
    23:00 +18°C° 0 mm 1 m/S 747 mmHg 78%

    übermorgen, 27 September, Mittwoch

    Zeit Temperatur Niederschläge Wind Luftdruck Luftfeuchtigkeit
    00:00 +18°C° 0 mm 1 m/S 747 mmHg 78%
    01:00 +18°C° 0 mm 1 m/S 747 mmHg 78%
    02:00 +16°C° 0 mm 1 m/S 747 mmHg 78%
    03:00 +16°C° 0 mm 1 m/S 747 mmHg 78%
    04:00 +16°C° 0 mm 1 m/S 747 mmHg 78%
    05:00 +18°C° 0 mm 1 m/S 747 mmHg 75%
    06:00 +19°C° 0 mm 1 m/S 747 mmHg 73%
    07:00 +19°C° 0 mm 1 m/S 748 mmHg 70%
    08:00 +21°C° 0 mm 1 m/S 748 mmHg 63%
    09:00 +23°C° 0 mm 1 m/S 748 mmHg 56%
    10:00 +25°C° 0 mm 1 m/S 748 mmHg 50%
    11:00 +26°C° 0,1 mm 1 m/S 748 mmHg 48%
    12:00 +26°C° 0,1 mm 2 m/S 748 mmHg 46%
    13:00 +26°C° 0,1 mm 2 m/S 748 mmHg 45%
    14:00 +26°C° 0,2 mm 2 m/S 748 mmHg 49%
    15:00 +25°C° 0,2 mm 2 m/S 748 mmHg 53%
    16:00 +24°C° 0,2 mm 2 m/S 748 mmHg 58%
    17:00 +23°C° 0,3 mm 2 m/S 748 mmHg 65%
    18:00 +21°C° 0,3 mm 1 m/S 748 mmHg 72%
    19:00 +20°C° 0,3 mm 1 m/S 748 mmHg 79%
    20:00 +20°C° 0,1 mm 1 m/S 748 mmHg 79%
    21:00 +20°C° 0,1 mm 1 m/S 748 mmHg 78%
    22:00 +20°C° 0,1 mm 1 m/S 749 mmHg 78%
    23:00 +19°C° 0,1 mm 1 m/S 749 mmHg 78%

    28 September, Donnerstag

    Zeit Temperatur Niederschläge Wind Luftdruck Luftfeuchtigkeit
    00:00 +19°C° 0,1 mm 1 m/S 749 mmHg 78%
    01:00 +19°C° 0,1 mm 1 m/S 749 mmHg 78%
    02:00 +19°C° 0 mm 1 m/S 748 mmHg 78%
    03:00 +19°C° 0 mm 1 m/S 748 mmHg 79%
    04:00 +18°C° 0 mm 1 m/S 748 mmHg 79%
    05:00 +19°C° 0 mm 1 m/S 748 mmHg 77%
    06:00 +19°C° 0 mm 1 m/S 748 mmHg 74%
    07:00 +20°C° 0 mm 1 m/S 748 mmHg 72%
    08:00 +22°C° 0 mm 1 m/S 749 mmHg 66%
    09:00 +23°C° 0 mm 1 m/S 749 mmHg 60%
    10:00 +24°C° 0 mm 1 m/S 749 mmHg 54%
    11:00 +25°C° 0,4 mm 2 m/S 749 mmHg 53%
    12:00 +25°C° 0,4 mm 2 m/S 748 mmHg 52%
    13:00 +26°C° 0,4 mm 3 m/S 748 mmHg 51%
    14:00 +25°C° 1,2 mm 3 m/S 748 mmHg 56%
    15:00 +24°C° 1,2 mm 3 m/S 748 mmHg 62%
    16:00 +22°C° 1,2 mm 3 m/S 747 mmHg 67%
    17:00 +21°C° 1,1 mm 2 m/S 748 mmHg 72%
    18:00 +20°C° 1,1 mm 2 m/S 748 mmHg 76%
    19:00 +19°C° 1,1 mm 2 m/S 748 mmHg 81%
    20:00 +19°C° 0,7 mm 2 m/S 748 mmHg 81%
    21:00 +18°C° 0,7 mm 2 m/S 748 mmHg 82%
    22:00 +18°C° 0,7 mm 2 m/S 748 mmHg 82%
    23:00 +18°C° 0,3 mm 2 m/S 748 mmHg 83%

    29 September, Freitag

    Zeit Temperatur Niederschläge Wind Luftdruck Luftfeuchtigkeit
    00:00 +18°C° 0,3 mm 2 m/S 748 mmHg 83%
    01:00 +17°C° 0,3 mm 2 m/S 747 mmHg 83%
    02:00 +17°C° 0,2 mm 2 m/S 747 mmHg 83%
    03:00 +17°C° 0,2 mm 2 m/S 747 mmHg 83%
    04:00 +17°C° 0,2 mm 2 m/S 747 mmHg 83%
    05:00 +17°C° 0,2 mm 2 m/S 747 mmHg 81%
    06:00 +18°C° 0,2 mm 2 m/S 747 mmHg 80%
    07:00 +18°C° 0,2 mm 2 m/S 747 mmHg 78%
    08:00 +19°C° 0,1 mm 2 m/S 747 mmHg 74%
    09:00 +19°C° 0,1 mm 2 m/S 747 mmHg 69%
    10:00 +20°C° 0,1 mm 2 m/S 747 mmHg 64%
    11:00 +21°C° 0,2 mm 2 m/S 747 mmHg 63%
    12:00 +21°C° 0,2 mm 2 m/S 746 mmHg 61%
    13:00 +23°C° 0,2 mm 2 m/S 746 mmHg 59%
    14:00 +21°C° 0,7 mm 2 m/S 746 mmHg 61%
    15:00 +21°C° 0,7 mm 2 m/S 746 mmHg 64%
    16:00 +21°C° 0,7 mm 2 m/S 746 mmHg 66%
    17:00 +21°C° 0,5 mm 1 m/S 746 mmHg 70%
    18:00 +20°C° 0,5 mm 1 m/S 746 mmHg 74%
    19:00 +19°C° 0,5 mm 1 m/S 746 mmHg 78%
    20:00 +19°C° 0,2 mm 1 m/S 746 mmHg 79%
    21:00 +18°C° 0,2 mm 1 m/S 746 mmHg 80%
    22:00 +17°C° 0,2 mm 2 m/S 746 mmHg 81%
    23:00 +17°C° 0,2 mm 2 m/S 746 mmHg 81%

    30 September, Samstag

    Zeit Temperatur Niederschläge Wind Luftdruck Luftfeuchtigkeit
    00:00 +17°C° 0,2 mm 2 m/S 745 mmHg 81%
    01:00 +16°C° 0,2 mm 2 m/S 745 mmHg 82%
    02:00 +16°C° 0,1 mm 2 m/S 745 mmHg 82%
    03:00 +16°C° 0,1 mm 2 m/S 745 mmHg 82%
    04:00 +16°C° 0,1 mm 2 m/S 745 mmHg 82%
    05:00 +16°C° 0,1 mm 2 m/S 745 mmHg 80%
    06:00 +16°C° 0,1 mm 2 m/S 745 mmHg 78%
    07:00 +17°C° 0,1 mm 2 m/S 745 mmHg 76%
    08:00 +18°C° 0,1 mm 2 m/S 745 mmHg 69%
    09:00 +20°C° 0,1 mm 2 m/S 745 mmHg 63%
    10:00 +21°C° 0,1 mm 2 m/S 745 mmHg 56%
    11:00 +21°C° 0,3 mm 2 m/S 744 mmHg 56%
    12:00 +23°C° 0,3 mm 2 m/S 744 mmHg 56%
    13:00 +23°C° 0,3 mm 2 m/S 744 mmHg 56%
    14:00 +21°C° 0,7 mm 2 m/S 744 mmHg 59%
    15:00 +21°C° 0,7 mm 2 m/S 743 mmHg 63%
    16:00 +20°C° 0,7 mm 2 m/S 743 mmHg 67%
    17:00 +20°C° 0,6 mm 1 m/S 743 mmHg 71%
    18:00 +19°C° 0,6 mm 1 m/S 744 mmHg 76%
    19:00 +18°C° 0,6 mm 1 m/S 744 mmHg 80%
    20:00 +18°C° 0,2 mm 1 m/S 744 mmHg 81%
    21:00 +18°C° 0,2 mm 1 m/S 744 mmHg 82%
    22:00 +16°C° 0,2 mm 1 m/S 744 mmHg 83%
    23:00 +16°C° 0,1 mm 1 m/S 744 mmHg 83%
    Mehr zeigen